Location: Clandonald
(53.5720°N, 110.7141°W)
Time: 06:38:49
(UTC+00:00)

N. Korean satellite - Visible Passes

Search period start: 19 October 2019 00:00
Search period end: 29 October 2019 00:00
Orbit: 455 x 508 km, 97.2° (Epoch: 18 October)

Date Brightness Start Highest point End Pass type
(mag) Time Alt. Az. Time Alt. Az. Time Alt. Az.
19 Oct 10.5 01:46:57 10° W 01:47:46 11° W 01:48:36 10° WNW visible
19 Oct 8.2 13:03:43 10° NNE 13:07:09 41° E 13:10:36 10° S visible
20 Oct 9.7 01:19:40 10° SW 01:22:12 19° W 01:24:45 10° NW visible
20 Oct 9.4 12:38:46 10° NE 12:41:42 23° E 12:44:40 10° SSE visible
21 Oct 8.5 00:53:33 10° SSW 00:56:43 34° W 00:59:55 10° NNW visible
21 Oct 10.2 12:14:19 10° ENE 12:16:10 13° E 12:18:02 10° ESE visible
22 Oct 7.2 13:21:04 10° NNE 13:24:40 65° ESE 13:28:19 10° S visible
23 Oct 10.2 01:38:11 10° WSW 01:39:50 13° W 01:41:30 10° WNW visible
23 Oct 8.5 12:55:56 10° NNE 12:59:17 34° E 13:02:40 10° SSE visible
24 Oct 9.4 01:11:29 10° SSW 01:14:16 23° W 01:17:07 10° NW visible
24 Oct 9.7 12:31:04 10° NE 12:33:48 20° E 12:36:34 10° SE visible
25 Oct 8.1 00:45:32 10° S 00:48:49 41° W 00:52:10 10° NNW visible
25 Oct 10.4 12:06:57 10° ENE 12:08:14 11° E 12:09:32 10° ESE visible
26 Oct 7.6 13:13:13 10° NNE 13:16:49 53° E 13:20:26 10° S visible
27 Oct 10.0 01:29:43 10° SW 01:31:52 15° W 01:34:03 10° NW visible
27 Oct 8.9 12:48:08 10° NNE 12:51:23 29° E 12:54:39 10° SSE visible
28 Oct 9.0 01:03:19 10° SSW 01:06:20 27° W 01:09:24 10° NW visible
28 Oct 9.9 12:23:22 10° NE 12:25:53 17° E 12:28:22 10° SE visible
